Flag for Sweden Weather past 2 weeks in Karlstad, Sweden

41 °F

Partly sunny.

Feels Like: 34 °F
Forecast: 36 / 41 °F
Wind: 12 mph from Southwest

Location: Karlstad

Current Time: Nov 28, 2015 at 1:13:31 PM

Latest Report: Nov 28, 2015 at 12:50 PM

Visibility: N/A

Pressure: 29.24 "Hg

Humidity: 93%

Dew point: 39 °F

Location of KarlstadLocation

Historic Weather in Karlstad — Graph


Karlstad temperature yesterday

Maximum temperature yesterday: 50 °F (at 12:20 PM)
Minimum temperature yesterday: 41 °F (at 12:20 AM)
Average temperature yesterday: 47 °F

Past Weeks' High & Low Weather Summary

High50 °F (Nov 13, 11:20 AM)100% (Nov 13, 11:50 AM)29.92 "Hg (Nov 13, 11:50 AM)
Low14 °F (Nov 23, 1:20 AM)76% (Nov 15, 12:50 PM)29.12 "Hg (Nov 19, 7:20 AM)
Average34 °F94%29.50 "Hg
* Reported Nov 13 11:20 AM — Nov 28 11:50 AM, Karlstad, Weather by CustomWeather, © 2015

Note: Actual official high and low records may vary slightly from our data, if they occured in-between our weather recording intervals... More about our weather records


Karlstad weather history for previous 24 hours

Time TempWeatherWind HumidityBarometerVisibility
11:50 AM
Sat, Nov 28
41 °FScattered clouds.8 mph93%29.24 "HgN/A
11:20 AM39 °FPassing clouds.8 mph100%29.21 "HgN/A
10:50 AM41 °FScattered clouds.8 mph93%29.21 "HgN/A
10:20 AM43 °FLight rain. Cloudy.12 mph93%29.18 "Hg4 mi
9:50 AM43 °FDrizzle. Low clouds.21 mph93%29.18 "Hg6 mi
9:20 AM43 °FDrizzle. Low clouds.22 mph93%29.18 "HgN/A
8:50 AM43 °FLow clouds.23 mph93%29.18 "Hg6 mi
7:20 AM43 °FFog.22 mph93%29.21 "Hg3 mi
6:50 AM43 °FDrizzle. Low clouds.22 mph93%29.21 "HgN/A
6:20 AM43 °FLight rain. Low clouds.20 mph93%29.21 "HgN/A
5:50 AM43 °FMostly cloudy.22 mph93%29.21 "HgN/A
5:20 AM43 °FFog.23 mph93%29.21 "Hg6 mi
4:50 AM43 °FLow clouds.23 mph100%29.24 "HgN/A
4:20 AM43 °FLow clouds.21 mph100%29.24 "Hg5 mi
3:50 AM45 °FLow clouds.22 mph93%29.27 "HgN/A
3:20 AM45 °FLight rain. Low clouds.22 mph93%29.27 "HgN/A
2:50 AM45 °FFog.23 mph93%29.30 "Hg4 mi
2:20 AM45 °FLow clouds.23 mph93%29.30 "HgN/A
12:50 AM46 °FFog.21 mph93%29.33 "Hg3 mi
11:50 PM
Fri, Nov 27
46 °FFog.22 mph93%29.33 "Hg4 mi
11:20 PM46 °FFog.22 mph93%29.33 "Hg2 mi
10:50 PM46 °FFog.21 mph93%29.36 "Hg3 mi
10:20 PM46 °FFog.20 mph93%29.36 "Hg3 mi
9:50 PM46 °FPassing clouds.20 mph100%29.39 "Hg3 mi
9:20 PM46 °FPassing clouds.16 mph100%29.39 "Hg3 mi
8:50 PM48 °FPassing clouds.17 mph94%29.39 "Hg3 mi
8:20 PM46 °FPassing clouds.17 mph100%29.39 "Hg2 mi
7:50 PM46 °FFog.20 mph100%29.39 "Hg2 mi
7:20 PM46 °FFog.22 mph100%29.39 "Hg5 mi
6:50 PM46 °FPassing clouds.22 mph100%29.42 "HgN/A
6:20 PM46 °FPassing clouds.20 mph100%29.42 "HgN/A
5:50 PM46 °FPassing clouds.20 mph100%29.42 "HgN/A
5:20 PM46 °FDrizzle. Low clouds.20 mph100%29.42 "Hg4 mi
4:50 PM46 °FDrizzle. Low clouds.17 mph100%29.45 "Hg5 mi
4:20 PM48 °FPassing clouds.17 mph94%29.45 "HgN/A
3:50 PM46 °FPassing clouds.18 mph100%29.45 "HgN/A
3:20 PM48 °FPassing clouds.18 mph94%29.45 "HgN/A
2:50 PM48 °FPartly sunny.20 mph94%29.45 "HgN/A
2:20 PM48 °FOvercast.15 mph94%29.45 "HgN/A
1:50 PM48 °FOvercast.13 mph94%29.47 "HgN/A
1:20 PM50 °FOvercast.12 mph88%29.47 "HgN/A
Weather by CustomWeather, © 2015

See weather overviewHow to use our weather pages